Погода в Слободском

Россия / Орловская область     52°31′46″N   36°00′45″E
темп.,
°C
ветер,
м/с
пор.,
м/с
влажн.,
%
обл.,
%
осадки,
мм/ч
давл.,
гПа
погр.,
м
8 марта, пн
пн800:00−3з51184100 1.0 1004299
03:00−5зюз51183100 1.0 1004239
06:00−5зюз51287100 0.0 1003335
09:00−5з6129397 0.0 1004594
12:00−3зсз6108453 0.0 1006983
15:00−3зсз588274 0.1 1007998
18:00−6з348864 0.1 100839
21:00−8зсз339267 0.1 101042
9 марта, вт
вт900:00−11сз239664 0.0 101121
03:00−11сз339679 0.1 101274
06:00−11ссз389696 0.1 1013179
09:00−12ссз489592 0.1 1016282
12:00−10ссз4691100 0.0 1017500
15:00−9ссз4686100 0.1 1019709
18:00−11сз2390100 0.0 102021
21:00−14сз239274 0.1 102220
10 марта, ср
ср1000:00−15сз239480 0.0 102320
03:00−16сз229781 0.0 102520
06:00−18зсз129941 0.0 102620
09:00−15з119563 0.0 102738
12:00−10юз2388100 0.0 1026319
15:00−8юз3590100 0.1 1026504
18:00−8юз3595100 0.2 1025194
21:00−9ююз1196100 0.8 102744
11 марта, чт
чт1100:00−14в5995100 0.8 1028286
03:00−16в489598 1.0 1029239
06:00−20в479579 0.0 1030130
09:00−19вюв488854 0.0 1031203
12:00−15вюв47900 0.0 1031266
15:00−12юв469120 0.0 1030333
18:00−14вюв479592 0.0 1029161
21:00−16юв4109268 0.0 1029155
12 марта, пт
пт1200:00−15юв512870 0.0 1028208
03:00−14ююв612843 0.0 1026254
06:00−12ююв7148397 0.0 1024343
09:00−8ююв9178198 0.0 1022578
12:00−5ю111886100 0.1 10191120
15:00−4ю122093100 1.2 10161287
18:00−4ю121992100 2.0 10131154
21:00−4ю122092100 3.1 1011959